Location: Vinland
(47.7731°N, 122.6974°W)
Time: 02:30:02
(UTC+00:00)

S-56A Canister/Altair - Pass Details

Date: 01 April 2023
Orbit: 639 x 2492 km, 38.9° (Epoch: 31 May)

Event Time Altitude Azimuth Distance (km) Brightness Sun altitude
Rises 06:41:54 0° 279° (W) 5,530 12.4 -33.9°
Reaches altitude 10° 06:45:39 10° 271° (W) 4,730 11.8 -34.2°
Maximum altitude 06:57:33 36° 212° (SSW) 3,414 10.4 -35.1°
Enters shadow 06:57:37 36° 212° (SSW) 3,415 10.4 -35.1°
